Location: Northern Prairie Star Party
(53.2167°N, 112.5333°W)
Time: 01:52:33
(UTC-07:00)

Amateur Radio Satellites - All Passes

Search period start: 03 March 2015 01:22
Search period end: 04 March 2015 01:22
Location: Northern Prairie Star Party, 53.2167°N, 112.5333°W

Satellite Date Start Highest point End Downlink Frequencies (MHz)
Time Altitude Azimuth
Oscar 19 03 Mar 01:26:26 01:30:57 31° 94° (E) 01:35:32 437.125/150
ITAMSAT 1 03 Mar 01:26:53 01:29:05 13° 82° (E) 01:31:31 435.822/435.867
DANDE 03 Mar 01:32:09 01:38:07 47° 288° (WNW) 01:42:33 436.750
BEESAT 3 03 Mar 01:37:02 01:41:13 82° 228° (SW) 01:45:20 437.485
NANOSAT C BR1 03 Mar 01:38:28 01:40:42 14° 306° (NW) 01:42:48 145.865
SWISSCUBE 03 Mar 01:44:25 01:48:55 39° 263° (W) 01:53:25 437.505
PCSat 03 Mar 01:49:34 01:53:23 19° 1° (N) 01:57:14 145.827
BEESAT 03 Mar 01:53:07 01:57:31 35° 264° (W) 02:01:57 436.000
KKS-1 03 Mar 01:58:54 02:03:22 73° 72° (ENE) 02:07:51 437.445
AIST 2 03 Mar 02:01:51 02:06:10 71° 43° (NE) 02:10:25 435.215
CUSAT 1 03 Mar 02:02:05 02:06:21 23° 294° (WNW) 02:09:45 437.405
BEESAT 2 03 Mar 02:02:58 02:07:06 58° 232° (SW) 02:11:09 435.950
STARS 03 Mar 02:04:39 02:09:01 57° 70° (ENE) 02:13:23 437.465
SO-50 03 Mar 02:16:12 02:20:34 42° 124° (SE) 02:25:08 436.795
RS-15 03 Mar 02:17:08 02:27:59 62° 330° (NNW) 02:39:11 29.354- 29.394
ITUPSAT 1 03 Mar 02:21:39 02:25:25 22° 270° (W) 02:29:08 437.325
Gurwin Techsat 1B 03 Mar 02:38:42 02:43:37 37° 95° (E) 02:48:33 435.225
M-CUBED/EXP-1 PRIME 03 Mar 02:39:03 02:41:53 26° 57° (ENE) 02:44:54 437.505
AUBIESAT-1 03 Mar 02:40:47 02:43:34 24° 56° (NE) 02:46:33 437.475
YUBILEINY 03 Mar 03:02:43 03:11:32 65° 72° (ENE) 03:20:20 435.215
JAS-2 03 Mar 03:02:51 03:06:13 14° 77° (ENE) 03:10:08 435.910
ITAMSAT 1 03 Mar 03:04:25 03:09:40 71° 103° (ESE) 03:14:54 435.822/435.867
Oscar 19 03 Mar 03:05:36 03:10:33 48° 294° (WNW) 03:15:27 437.125/150
MOZHAYETS 4 03 Mar 03:13:24 03:17:16 28° 62° (ENE) 03:21:14
BEESAT 3 03 Mar 03:16:27 03:18:43 14° 247° (WSW) 03:20:49 437.485
AO-7 03 Mar 03:19:08 03:25:05 22° 85° (E) 03:31:18 29.400- 29.500
PCSat 03 Mar 03:33:49 03:38:31 29° 27° (NNE) 03:43:14 145.827
KKS-1 03 Mar 03:37:32 03:40:35 17° 272° (W) 03:43:30 437.445
AIST 2 03 Mar 03:41:04 03:44:25 22° 243° (WSW) 03:47:38 435.215
STARS 03 Mar 03:42:25 03:45:52 21° 269° (W) 03:49:14 437.465
HORYU 2 03 Mar 03:47:27 03:51:41 41° 98° (E) 03:55:55 437.375
SO-50 03 Mar 03:56:33 04:01:09 48° 326° (NW) 04:05:52 436.795
PRISM 03 Mar 04:13:03 04:14:46 13° 53° (NE) 04:16:37 437.425
M-CUBED/EXP-1 PRIME 03 Mar 04:13:44 04:16:48 32° 257° (WSW) 04:20:01 437.505
AUBIESAT-1 03 Mar 04:15:16 04:18:23 34° 257° (WSW) 04:21:40 437.475
Gurwin Techsat 1B 03 Mar 04:18:41 04:23:43 43° 296° (WNW) 04:28:43 435.225
RS-15 03 Mar 04:32:06 04:42:40 47° 2° (N) 04:53:40 29.354- 29.394
ITAMSAT 1 03 Mar 04:44:34 04:48:46 25° 304° (WNW) 04:52:53 435.822/435.867
JAS-2 03 Mar 04:45:47 04:52:55 56° 99° (E) 05:00:36 435.910
Oscar 19 03 Mar 04:47:07 04:48:51 11° 314° (NW) 04:50:25 437.125/150
MOZHAYETS 4 03 Mar 04:49:56 04:54:21 47° 261° (W) 04:58:49
YUBILEINY 03 Mar 05:00:02 05:08:01 39° 276° (W) 05:15:50 435.215
AO-7 03 Mar 05:11:02 05:19:24 79° 109° (ESE) 05:27:43 29.400- 29.500
CUBESAT XI-V 03 Mar 05:13:06 05:17:23 36° 65° (ENE) 05:21:44 437.345
PCSat 03 Mar 05:17:12 05:22:41 85° 48° (NE) 05:28:09 145.827
HORYU 2 03 Mar 05:24:21 05:28:16 30° 297° (WNW) 05:32:08 437.375
STRAND 1 03 Mar 05:29:41 05:34:25 38° 63° (ENE) 05:39:13 437.568
SO-50 03 Mar 05:38:52 05:42:44 23° 349° (N) 05:46:41 436.795
PRISM 03 Mar 05:45:25 05:49:34 71° 72° (ENE) 05:53:46 437.425
Gurwin Techsat 1B 03 Mar 06:01:07 06:02:32 11° 316° (NW) 06:03:45 435.225
JAS-2 03 Mar 06:31:08 06:37:54 45° 298° (WNW) 06:45:06 435.910
Cubesat XI-IV 03 Mar 06:34:55 06:40:05 45° 98° (E) 06:45:14 437.490
CUTE-I 03 Mar 06:43:43 06:48:58 52° 99° (E) 06:54:12 437.470
RS-15 03 Mar 06:46:03 06:57:15 66° 33° (NNE) 07:08:59 29.354- 29.394
CUBESAT XI-V 03 Mar 06:50:28 06:54:51 37° 265° (W) 06:59:15 437.345
PCSat 03 Mar 07:01:27 07:05:34 22° 250° (WSW) 07:09:32 145.827
AO-7 03 Mar 07:04:19 07:11:40 36° 311° (NW) 07:18:54 29.400- 29.500
STRAND 1 03 Mar 07:08:47 07:13:39 40° 263° (W) 07:18:32 437.568
AIST 1 03 Mar 07:13:33 07:17:41 44° 94° (E) 07:21:54
GONETS M04 03 Mar 07:15:03 07:22:05 27° 52° (NE) 07:29:19
SO-50 03 Mar 07:20:45 07:24:44 24° 13° (NNE) 07:28:46 436.795
PRISM 03 Mar 07:22:57 07:25:37 16° 272° (W) 07:28:10 437.425
HO-68 03 Mar 07:51:25 07:55:47 17° 82° (E) 08:00:28 435.675
UNISAT 6 03 Mar 08:12:52 08:13:58 11° 52° (NE) 08:15:13 437.425
Cubesat XI-IV 03 Mar 08:15:13 08:20:10 37° 298° (WNW) 08:25:02 437.490
JAS-2 03 Mar 08:17:40 08:21:30 15° 319° (NW) 08:25:13 435.910
SEEDS 03 Mar 08:22:15 08:24:36 15° 86° (E) 08:27:05 437.485
CUTE-I 03 Mar 08:24:08 08:28:55 33° 300° (WNW) 08:33:37 437.470
CANX-2 03 Mar 08:25:55 08:29:02 20° 89° (E) 08:32:14 2200.000
TIGRISAT 03 Mar 08:35:53 08:38:30 16° 57° (ENE) 08:41:13 435.000
BRITE-PL 03 Mar 08:40:25 08:44:48 38° 95° (E) 08:48:54 437.365/2234.400
GOMX 1 03 Mar 08:42:17 08:46:07 27° 92° (E) 08:49:48 467.674
DUCHIFAT 1 03 Mar 08:43:08 08:44:45 12° 53° (NE) 08:46:30 145.980
CUTE 1.7 + AOD 2 03 Mar 08:44:08 08:47:43 26° 93° (E) 08:51:21 437.475
ANTELSAT 03 Mar 08:49:08 08:52:20 21° 60° (ENE) 08:55:35 437.575/2403.000
AIST 1 03 Mar 08:51:50 08:55:34 26° 294° (WNW) 08:59:19
O/OREOS (USA 219) 03 Mar 08:54:35 08:57:46 19° 103° (ESE) 09:01:06 437.305
AO-7 03 Mar 08:57:43 09:02:13 16° 337° (NNW) 09:06:33 29.400- 29.500
RS-15 03 Mar 08:58:46 09:09:46 58° 240° (WSW) 09:21:09 29.354- 29.394
SO-50 03 Mar 09:01:28 09:06:17 52° 36° (NE) 09:11:08 436.795
POLYITAN 1 03 Mar 09:02:43 09:05:30 18° 57° (ENE) 09:08:24 437.675
POPSAT HIP 1 03 Mar 09:02:55 09:05:42 17° 57° (ENE) 09:08:34 437.405
GONETS M04 03 Mar 09:11:40 09:20:29 84° 79° (ENE) 09:29:18
DOVE 4 03 Mar 09:13:58 09:18:01 37° 96° (E) 09:21:55 437.250
CINEMA 3 03 Mar 09:17:29 09:20:53 23° 91° (E) 09:24:16 145.822/145.860
Oscar 11 03 Mar 09:22:52 09:26:14 22° 91° (E) 09:29:38 145.826/435.025
NANOSAT C BR1 03 Mar 09:24:58 09:28:27 25° 62° (ENE) 09:32:00 145.865
AAUSAT CUBESAT 2 03 Mar 09:25:21 09:29:20 40° 98° (E) 09:33:19 437.432
COMPASS 1 03 Mar 09:28:25 09:32:30 49° 99° (E) 09:36:37 437.405
CUBEBUG 2 03 Mar 09:33:54 09:37:00 20° 90° (E) 09:40:10 437.445
HO-68 03 Mar 09:37:46 09:44:59 72° 105° (ESE) 09:52:11 435.675
UNISAT 6 03 Mar 09:45:42 09:50:00 59° 71° (ENE) 09:54:15 437.425
DX 1 03 Mar 09:48:29 09:51:37 19° 90° (E) 09:54:50 434.975-435.025
AISAT 03 Mar 09:56:18 09:57:30 11° 83° (E) 09:58:56 437.250
SEEDS 03 Mar 09:56:46 10:01:01 78° 286° (WNW) 10:05:15 437.485
QB50P1 03 Mar 09:57:14 10:01:20 46° 68° (ENE) 10:05:28 145.935-145.965
50 SAT 03 Mar 10:00:33 10:00:50 10° 84° (E) 10:01:20 437.505
CANX-2 03 Mar 10:01:10 10:05:22 57° 290° (WNW) 10:09:32 2200.000
QB50P2 03 Mar 10:01:16 10:05:25 51° 69° (ENE) 10:09:36 145.880/145.840
BUGSAT 1 03 Mar 10:04:04 10:08:06 42° 67° (ENE) 10:12:10 437.445
VELOX 1 03 Mar 10:04:49 10:06:51 13° 85° (E) 10:09:05 145.980
HUMSAT D 03 Mar 10:08:38 10:11:26 18° 89° (E) 10:14:19 437.325/437.525
FUNcube-1 03 Mar 10:08:47 10:12:27 30° 94° (E) 10:16:08 145.935
ZACube-1 03 Mar 10:10:15 10:13:59 31° 95° (E) 10:17:43 437.345
TIGRISAT 03 Mar 10:10:23 10:14:46 85° 254° (WSW) 10:19:07 435.000
DUCHIFAT 1 03 Mar 10:15:38 10:19:53 67° 72° (ENE) 10:24:08 145.980
UKube-1 03 Mar 10:16:42 10:20:37 32° 95° (E) 10:24:33 .
ISS 03 Mar 10:18:19 10:21:11 30° 155° (SSE) 10:24:05 145.825
BRITE-PL 03 Mar 10:19:05 10:23:20 33° 297° (WNW) 10:27:16 437.365/2234.400
CUTE 1.7 + AOD 2 03 Mar 10:19:48 10:23:50 42° 292° (WNW) 10:27:51 437.475
GOMX 1 03 Mar 10:20:12 10:24:29 42° 293° (WNW) 10:28:30 467.674
ESTCUBE 1 03 Mar 10:23:42 10:24:49 11° 82° (E) 10:26:09 437.505/2401.250
ANTELSAT 03 Mar 10:24:29 10:28:49 62° 258° (WSW) 10:33:07 437.575/2403.000
DANDE 03 Mar 10:25:09 10:27:24 20° 63° (ENE) 10:29:29 436.750
DELFI C3 03 Mar 10:28:59 10:33:05 71° 103° (ESE) 10:37:10 145.870
UWE-3 03 Mar 10:30:49 10:34:57 57° 101° (E) 10:39:03 435.000/436.395/437.385
O/OREOS (USA 219) 03 Mar 10:32:10 10:36:45 71° 302° (WNW) 10:41:23 437.305
POLYITAN 1 03 Mar 10:36:41 10:40:59 77° 257° (WSW) 10:45:18 437.675
POPSAT HIP 1 03 Mar 10:36:49 10:41:08 78° 256° (WSW) 10:45:26 437.405
SO-50 03 Mar 10:42:11 10:46:49 40° 237° (WSW) 10:51:25 436.795
AO-7 03 Mar 10:48:50 10:51:35 12° 6° (N) 10:54:23 29.400- 29.500
CUSAT 1 03 Mar 10:50:24 10:53:06 55° 74° (ENE) 10:55:40 437.405
DOVE 4 03 Mar 10:51:54 10:55:47 30° 296° (WNW) 10:59:26 437.250
CINEMA 3 03 Mar 10:54:19 10:58:23 45° 292° (WNW) 11:02:21 145.822/145.860
Oscar 11 03 Mar 10:58:31 11:02:45 53° 290° (WNW) 11:06:58 145.826/435.025
NANOSAT C BR1 03 Mar 10:59:58 11:04:07 48° 260° (W) 11:08:18 145.865
AAUSAT CUBESAT 2 03 Mar 11:01:16 11:04:53 28° 296° (WNW) 11:08:26 437.432
COMPASS 1 03 Mar 11:04:35 11:08:00 24° 298° (WNW) 11:11:23 437.405
GONETS M04 03 Mar 11:09:21 11:16:29 28° 281° (W) 11:23:25
CUBEBUG 2 03 Mar 11:09:59 11:14:04 53° 290° (WNW) 11:18:07 437.445
Oscar 19 03 Mar 11:12:30 11:15:48 18° 53° (NE) 11:19:13 437.125/150
RS-15 03 Mar 11:13:11 11:19:54 17° 263° (W) 11:26:00 29.354- 29.394
UNISAT 6 03 Mar 11:23:57 11:27:13 20° 270° (W) 11:30:21 437.425
DX 1 03 Mar 11:23:58 11:28:20 62° 290° (WNW) 11:32:38 434.975-435.025
HO-68 03 Mar 11:25:59 11:32:20 35° 307° (NW) 11:38:35 435.675
AISAT 03 Mar 11:30:33 11:35:03 75° 103° (ESE) 11:39:29 437.250
CUBEBUG 1 03 Mar 11:31:34 11:35:43 38° 96° (E) 11:39:51 437.445
50 SAT 03 Mar 11:32:39 11:36:37 81° 104° (ESE) 11:40:35 437.505
QB50P1 03 Mar 11:33:54 11:37:28 25° 268° (W) 11:40:59 145.935-145.965
SEEDS 03 Mar 11:34:07 11:36:13 13° 305° (NW) 11:38:11 437.485
QB50P2 03 Mar 11:38:13 11:41:39 22° 269° (W) 11:45:00 145.880/145.840
CANX-2 03 Mar 11:39:39 11:40:31 10° 308° (NW) 11:41:12 2200.000
VELOX 1 03 Mar 11:39:43 11:44:13 87° 105° (ESE) 11:48:40 145.980
BUGSAT 1 03 Mar 11:40:04 11:43:45 27° 267° (W) 11:47:25 437.445
HUMSAT D 03 Mar 11:43:35 11:47:39 60° 289° (WNW) 11:51:42 437.325/437.525
FUNcube-1 03 Mar 11:45:04 11:48:53 36° 294° (WNW) 11:52:41 145.935
ZACube-1 03 Mar 11:46:37 11:50:25 34° 294° (WNW) 11:54:11 437.345
TIGRISAT 03 Mar 11:50:24 11:52:18 12° 275° (W) 11:54:01 435.000
UKube-1 03 Mar 11:52:48 11:56:51 37° 295° (WNW) 12:00:50 .
DUCHIFAT 1 03 Mar 11:53:17 11:56:13 17° 272° (W) 11:59:03 145.980
ISS 03 Mar 11:54:07 11:57:20 64° 173° (S) 12:00:33 145.825
ESTCUBE 1 03 Mar 11:58:04 12:02:39 71° 103° (ESE) 12:07:13 437.505/2401.250
SPROUT 03 Mar 12:01:06 12:04:32 23° 91° (E) 12:08:00 437.525
TISAT 1 03 Mar 12:02:24 12:05:37 21° 90° (E) 12:08:54 437.305
DELFI C3 03 Mar 12:05:06 12:07:52 17° 301° (WNW) 12:10:32 145.870
UWE-3 03 Mar 12:08:04 12:11:12 21° 300° (WNW) 12:14:16 435.000/436.395/437.385
DANDE 03 Mar 12:08:40 12:10:39 17° 269° (W) 12:12:27 436.750
O/OREOS (USA 219) 03 Mar 12:13:55 12:17:04 18° 325° (NW) 12:20:10 437.305
POLYITAN 1 03 Mar 12:16:26 12:17:45 11° 277° (W) 12:18:52 437.675
POPSAT HIP 1 03 Mar 12:16:27 12:17:51 11° 277° (W) 12:19:03 437.405
Gurwin Techsat 1B 03 Mar 12:27:59 12:31:56 22° 55° (NE) 12:35:59 435.225
AO-7 03 Mar 12:35:41 12:41:16 21° 33° (NNE) 12:47:01 29.400- 29.500
Oscar 11 03 Mar 12:37:36 12:38:05 10° 309° (NW) 12:38:23 145.826/435.025
ITUPSAT 1 03 Mar 12:39:37 12:40:16 10° 81° (E) 12:41:11 437.325
Oscar 19 03 Mar 12:49:21 12:54:30 81° 71° (ENE) 12:59:40 437.125/150
ITAMSAT 1 03 Mar 12:49:57 12:54:42 37° 62° (ENE) 12:59:31 435.822/435.867
DX 1 03 Mar 13:02:05 13:03:48 12° 309° (NW) 13:05:22 434.975-435.025
AISAT 03 Mar 13:08:01 13:11:13 19° 303° (WNW) 13:14:18 437.250
CUBEBUG 1 03 Mar 13:08:05 13:12:03 32° 296° (WNW) 13:15:57 437.445
50 SAT 03 Mar 13:08:49 13:11:09 15° 303° (WNW) 13:13:23 437.505
HO-68 03 Mar 13:15:14 13:18:07 13° 330° (NNW) 13:20:48 435.675
VELOX 1 03 Mar 13:17:20 13:20:16 17° 305° (NW) 13:23:03 145.980
HORYU 2 03 Mar 13:17:42 13:20:09 15° 54° (NE) 13:22:45 437.375
HUMSAT D 03 Mar 13:21:53 13:22:41 10° 308° (NW) 13:23:19 437.325/437.525
JAS-2 03 Mar 13:24:30 13:27:08 13° 38° (NE) 13:30:06 435.910
ISS 03 Mar 13:30:27 13:33:37 52° 194° (SSW) 13:36:47 145.825
ESTCUBE 1 03 Mar 13:35:43 13:39:07 20° 302° (WNW) 13:42:25 437.505/2401.250
SPROUT 03 Mar 13:36:44 13:40:56 50° 291° (WNW) 13:45:04 437.525
TISAT 1 03 Mar 13:37:38 13:41:47 53° 291° (WNW) 13:45:53 437.305
SWISSCUBE 03 Mar 13:38:13 13:42:38 35° 95° (E) 13:47:04 437.505
BEESAT 03 Mar 13:46:39 13:51:08 38° 97° (E) 13:55:38 436.000
Gurwin Techsat 1B 03 Mar 14:06:03 14:11:23 83° 255° (WSW) 14:16:46 435.225
ITUPSAT 1 03 Mar 14:14:26 14:19:16 64° 102° (ESE) 14:24:04 437.325
YUBILEINY 03 Mar 14:20:26 14:24:38 15° 69° (ENE) 14:29:18 435.215
AO-7 03 Mar 14:24:28 14:32:28 54° 58° (ENE) 14:40:29 29.400- 29.500
ITAMSAT 1 03 Mar 14:29:11 14:34:10 43° 262° (W) 14:39:12 435.822/435.867
Oscar 19 03 Mar 14:30:57 14:34:33 18° 273° (W) 14:38:02 437.125/150
HORYU 2 03 Mar 14:51:46 14:56:13 83° 73° (ENE) 15:00:40 437.375
JAS-2 03 Mar 15:05:12 15:10:37 44° 62° (ENE) 15:16:46 435.910
ISS 03 Mar 15:07:12 15:09:36 19° 213° (SSW) 15:11:58 145.825
SWISSCUBE 03 Mar 15:16:04 15:20:35 40° 295° (WNW) 15:25:03 437.505
KKS-1 03 Mar 15:20:27 15:24:53 62° 102° (ESE) 15:29:17 437.445
BEESAT 03 Mar 15:24:35 15:29:01 36° 296° (WNW) 15:33:23 436.000
STARS 03 Mar 15:24:43 15:28:59 47° 99° (E) 15:33:14 437.465
Gurwin Techsat 1B 03 Mar 15:49:05 15:52:19 16° 276° (W) 15:55:21 435.225
ITUPSAT 1 03 Mar 15:52:56 15:56:50 24° 302° (WNW) 16:00:38 437.325
YUBILEINY 03 Mar 16:11:11 16:19:39 58° 92° (E) 16:28:15 435.215
AO-7 03 Mar 16:17:21 16:25:26 50° 260° (W) 16:33:29 29.400- 29.500
Cubesat XI-IV 03 Mar 16:24:36 16:29:00 27° 58° (ENE) 16:33:30 437.490
HORYU 2 03 Mar 16:30:55 16:33:33 15° 274° (W) 16:36:02 437.375
CUTE-I 03 Mar 16:33:02 16:37:38 30° 59° (ENE) 16:42:19 437.470
MOZHAYETS 4 03 Mar 16:38:51 16:42:49 28° 92° (E) 16:46:50
HO-68 03 Mar 16:45:20 16:47:01 11° 26° (NNE) 16:48:53 435.675
JAS-2 03 Mar 16:50:27 16:55:51 42° 266° (W) 17:01:53 435.910
KKS-1 03 Mar 16:57:45 17:01:12 22° 301° (WNW) 17:04:33 437.445
STARS 03 Mar 17:01:34 17:05:17 27° 299° (WNW) 17:08:56 437.465
AIST 1 03 Mar 17:14:27 17:18:03 24° 64° (ENE) 17:21:41
BEESAT 3 03 Mar 17:14:38 17:17:57 24° 119° (ESE) 17:21:20 437.485
O/OREOS (USA 219) 03 Mar 17:17:53 17:21:33 23° 41° (NE) 17:25:16 437.305
M-CUBED/EXP-1 PRIME 03 Mar 17:22:51 17:26:57 62° 108° (ESE) 17:31:24 437.505
AUBIESAT-1 03 Mar 17:23:57 17:28:03 58° 108° (ESE) 17:32:29 437.475
BEESAT 2 03 Mar 17:40:48 17:44:33 35° 123° (ESE) 17:48:24 435.950
AIST 2 03 Mar 17:45:04 17:48:02 19° 116° (ESE) 17:51:06 435.215
Cubesat XI-IV 03 Mar 18:03:25 18:08:46 66° 257° (WSW) 18:14:10 437.490
YUBILEINY 03 Mar 18:08:36 18:16:54 44° 296° (WNW) 18:25:15 435.215
CUTE-I 03 Mar 18:12:10 18:17:28 58° 259° (W) 18:22:49 437.470
MOZHAYETS 4 03 Mar 18:15:49 18:20:17 47° 292° (WNW) 18:24:44
AO-7 03 Mar 18:17:43 18:20:43 12° 285° (WNW) 18:23:07 29.400- 29.500
BRITE-PL 03 Mar 18:20:09 18:23:52 19° 56° (NE) 18:27:35 437.365/2234.400
GOMX 1 03 Mar 18:20:51 18:23:20 14° 53° (NE) 18:25:56 467.674
HO-68 03 Mar 18:26:41 18:32:34 29° 50° (NE) 18:38:34 435.675
CUBESAT XI-V 03 Mar 18:40:35 18:45:00 37° 96° (E) 18:49:24 437.345
DOVE 4 03 Mar 18:49:55 18:52:49 16° 56° (NE) 18:55:47 437.250
AAUSAT CUBESAT 2 03 Mar 18:50:29 18:51:28 11° 53° (NE) 18:52:36 437.432
BEESAT 3 03 Mar 18:51:39 18:55:45 62° 319° (NW) 18:59:54 437.485
AIST 1 03 Mar 18:51:44 18:56:02 49° 265° (W) 19:00:17
COMPASS 1 03 Mar 18:53:05 18:54:51 13° 54° (NE) 18:56:45 437.405
O/OREOS (USA 219) 03 Mar 18:56:55 19:01:32 77° 243° (WSW) 19:06:07 437.305
PRISM 03 Mar 18:57:25 19:01:33 49° 100° (E) 19:05:41 437.425
M-CUBED/EXP-1 PRIME 03 Mar 18:58:25 19:01:39 22° 305° (NW) 19:05:01 437.505
AUBIESAT-1 03 Mar 18:59:22 19:02:43 24° 304° (NW) 19:06:11 437.475
STRAND 1 03 Mar 19:12:34 19:17:30 44° 98° (E) 19:22:25 437.568
BEESAT 2 03 Mar 19:18:38 19:22:40 46° 323° (NW) 19:26:45 435.950
SEEDS 03 Mar 19:20:16 19:23:36 24° 62° (ENE) 19:26:59 437.485
AIST 2 03 Mar 19:21:52 19:26:10 82° 315° (NW) 19:30:31 435.215
CANX-2 03 Mar 19:24:52 19:28:34 31° 65° (ENE) 19:32:20 2200.000
VERMONT LUNAR 03 Mar 19:39:25 19:40:10 11° 179° (S) 19:40:57 437.305
ZACube-1 03 Mar 19:40:33 19:40:47 10° 52° (NE) 19:41:11 437.345
CUTE 1.7 + AOD 2 03 Mar 19:42:59 19:46:57 41° 68° (ENE) 19:50:57 437.475
UKube-1 03 Mar 19:44:54 19:46:21 12° 51° (NE) 19:47:58 .
Cubesat XI-IV 03 Mar 19:47:49 19:50:04 12° 279° (W) 19:52:03 437.490
DELFI C3 03 Mar 19:49:50 19:52:12 16° 57° (ENE) 19:54:41 145.870
PHONESAT 2.4 03 Mar 19:51:26 19:52:22 11° 173° (S) 19:53:19 2401.200-2431.200
GOMX 1 03 Mar 19:55:30 20:00:43 63° 71° (ENE) 20:05:40 467.674
BRITE-PL 03 Mar 19:56:13 20:01:49 85° 75° (ENE) 20:07:07 437.365/2234.400
CUTE-I 03 Mar 19:57:54 19:58:54 10° 281° (W) 19:59:35 437.470
UWE-3 03 Mar 19:59:31 20:02:15 17° 58° (ENE) 20:05:04 435.000/436.395/437.385
PCSat 03 Mar 20:06:31 20:10:21 20° 109° (ESE) 20:14:19 145.827
YUBILEINY 03 Mar 20:12:08 20:16:52 15° 325° (NW) 20:21:19 435.215
HO-68 03 Mar 20:12:30 20:19:40 86° 251° (WSW) 20:26:54 435.675
CUBESAT XI-V 03 Mar 20:18:07 20:22:28 36° 295° (WNW) 20:26:45 437.345
AAUSAT CUBESAT 2 03 Mar 20:22:17 20:26:22 62° 72° (ENE) 20:30:30 437.432
Oscar 11 03 Mar 20:23:31 20:27:27 36° 66° (ENE) 20:31:26 145.826/435.025
CINEMA 3 03 Mar 20:24:48 20:29:18 48° 69° (ENE) 20:33:38 145.822/145.860
DOVE 4 03 Mar 20:24:58 20:30:01 80° 74° (ENE) 20:34:49 437.250
COMPASS 1 03 Mar 20:25:45 20:29:54 75° 74° (ENE) 20:34:06 437.405
GONETS M04 03 Mar 20:27:16 20:33:03 21° 74° (ENE) 20:39:09
BEESAT 3 03 Mar 20:31:19 20:34:35 22° 341° (NNW) 20:37:51 437.485
PRISM 03 Mar 20:33:21 20:36:50 25° 299° (WNW) 20:40:16 437.425
CUBEBUG 2 03 Mar 20:37:54 20:42:00 38° 67° (ENE) 20:46:02 437.445
O/OREOS (USA 219) 03 Mar 20:38:15 20:40:14 12° 262° (W) 20:42:02 437.305
DX 1 03 Mar 20:49:44 20:53:47 37° 65° (ENE) 20:57:52 434.975-435.025
STRAND 1 03 Mar 20:51:57 20:56:40 36° 298° (WNW) 21:01:18 437.568
50 SAT 03 Mar 20:52:05 20:54:35 17° 59° (ENE) 20:57:10 437.505
SEEDS 03 Mar 20:55:07 20:59:11 49° 260° (W) 21:03:18 437.485
BEESAT 2 03 Mar 20:58:41 21:01:47 19° 346° (NNW) 21:04:51 435.950
AISAT 03 Mar 20:59:11 21:02:43 24° 60° (ENE) 21:06:21 437.250
CUBEBUG 1 03 Mar 21:00:20 21:02:21 13° 53° (NE) 21:04:30 437.445
CANX-2 03 Mar 21:00:35 21:04:30 36° 264° (W) 21:08:24 2200.000
AIST 2 03 Mar 21:01:44 21:05:22 25° 337° (NNW) 21:09:00 435.215
HUMSAT D 03 Mar 21:06:27 21:10:03 29° 64° (ENE) 21:13:41 437.325/437.525
VELOX 1 03 Mar 21:07:53 21:11:37 27° 61° (ENE) 21:15:24 145.980
FUNcube-1 03 Mar 21:10:28 21:14:40 52° 70° (ENE) 21:18:49 145.935
ZACube-1 03 Mar 21:12:08 21:16:22 55° 70° (ENE) 21:20:32 437.345
UKube-1 03 Mar 21:17:26 21:21:44 61° 70° (ENE) 21:26:04 .
CUTE 1.7 + AOD 2 03 Mar 21:19:26 21:23:03 27° 267° (W) 21:26:38 437.475
DELFI C3 03 Mar 21:22:52 21:26:55 80° 256° (WSW) 21:31:00 145.870
RS-15 03 Mar 21:26:11 21:29:53 13° 93° (E) 21:34:27 29.354- 29.394
ESTCUBE 1 03 Mar 21:28:19 21:31:49 23° 59° (ENE) 21:35:26 437.505/2401.250
UWE-3 03 Mar 21:33:58 21:38:22 81° 256° (WSW) 21:42:40 435.000/436.395/437.385
GOMX 1 03 Mar 21:34:55 21:39:14 24° 270° (W) 21:43:17 467.674
BRITE-PL 03 Mar 21:36:59 21:40:59 19° 274° (W) 21:44:41 437.365/2234.400
PCSat 03 Mar 21:47:43 21:53:09 89° 294° (WNW) 21:58:39 145.827
TIGRISAT 03 Mar 21:57:29 21:59:17 13° 85° (E) 22:01:16 435.000
AAUSAT CUBESAT 2 03 Mar 21:59:35 22:02:29 18° 272° (W) 22:05:16 437.432
Oscar 11 03 Mar 21:59:50 22:03:42 31° 265° (W) 22:07:34 145.826/435.025
CINEMA 3 03 Mar 22:02:46 22:06:45 26° 267° (W) 22:10:33 145.822/145.860
HO-68 03 Mar 22:03:09 22:08:33 22° 274° (W) 22:13:46 435.675
COMPASS 1 03 Mar 22:03:45 22:06:12 15° 274° (W) 22:08:33 437.405
DOVE 4 03 Mar 22:04:54 22:08:22 18° 273° (W) 22:11:35 437.250
ANTELSAT 03 Mar 22:11:01 22:13:50 17° 88° (E) 22:16:48 437.575/2403.000
BEESAT 3 03 Mar 22:11:15 22:14:00 17° 4° (N) 22:16:46 437.485
CUBEBUG 2 03 Mar 22:14:50 22:18:49 31° 266° (W) 22:22:39 437.445
POPSAT HIP 1 03 Mar 22:18:00 22:19:27 12° 84° (E) 22:21:05 437.405
POLYITAN 1 03 Mar 22:18:04 22:19:36 12° 84° (E) 22:21:19 437.675
GONETS M04 03 Mar 22:19:56 22:28:35 77° 97° (E) 22:37:18
50 SAT 03 Mar 22:25:12 22:29:10 71° 256° (WSW) 22:33:08 437.505
DX 1 03 Mar 22:26:06 22:30:06 32° 264° (W) 22:34:05 434.975-435.025
CUBEBUG 1 03 Mar 22:33:34 22:38:00 69° 72° (ENE) 22:42:28 437.445
AISAT 03 Mar 22:34:36 22:39:04 58° 259° (W) 22:43:32 437.250
BEESAT 2 03 Mar 22:38:25 22:41:19 18° 9° (N) 22:44:14 435.950
NANOSAT C BR1 03 Mar 22:39:33 22:42:30 19° 89° (E) 22:45:33 145.865
HUMSAT D 03 Mar 22:41:52 22:45:47 38° 263° (W) 22:49:40 437.325/437.525
AIST 2 03 Mar 22:42:21 22:45:17 17° 1° (N) 22:48:13 435.215
VELOX 1 03 Mar 22:43:38 22:48:00 49° 260° (W) 22:52:23 145.980
FUNcube-1 03 Mar 22:47:57 22:51:21 22° 269° (W) 22:54:37 145.935
ZACube-1 03 Mar 22:49:47 22:53:06 21° 270° (W) 22:56:18 437.345
UKube-1 03 Mar 22:55:05 22:58:20 20° 270° (W) 23:01:29 .
TISAT 1 03 Mar 23:00:28 23:04:24 36° 65° (ENE) 23:08:20 437.305
SPROUT 03 Mar 23:01:05 23:05:07 39° 67° (ENE) 23:09:11 437.525
DELFI C3 03 Mar 23:02:01 23:02:55 10° 277° (W) 23:03:38 145.870
ESTCUBE 1 03 Mar 23:03:53 23:08:23 61° 259° (WSW) 23:12:56 437.505/2401.250
UNISAT 6 03 Mar 23:08:02 23:12:16 54° 100° (E) 23:16:31 437.425
QB50P1 03 Mar 23:12:08 23:16:05 36° 96° (E) 23:20:00 145.935-145.965
UWE-3 03 Mar 23:14:05 23:15:42 12° 276° (W) 23:17:06 435.000/436.395/437.385
SWISSCUBE 03 Mar 23:15:35 23:18:25 16° 53° (NE) 23:21:22 437.505
BUGSAT 1 03 Mar 23:15:51 23:19:33 30° 95° (E) 23:23:13 437.445
QB50P2 03 Mar 23:16:25 23:20:25 40° 97° (E) 23:24:26 145.880/145.840
BEESAT 03 Mar 23:23:44 23:26:44 17° 54° (NE) 23:29:52 436.000
RS-15 03 Mar 23:29:19 23:39:33 51° 117° (ESE) 23:50:07 29.354- 29.394
DUCHIFAT 1 03 Mar 23:30:16 23:34:26 52° 100° (E) 23:38:32 145.980
TIGRISAT 03 Mar 23:32:29 23:36:47 89° 104° (ESE) 23:41:07 435.000
PCSat 03 Mar 23:32:30 23:37:17 30° 332° (NNW) 23:42:03 145.827
DANDE 03 Mar 23:42:36 23:47:50 31° 96° (E) 23:52:00 436.750
ANTELSAT 03 Mar 23:46:53 23:51:10 67° 288° (WNW) 23:55:27 437.575/2403.000
BEESAT 3 03 Mar 23:49:37 23:53:17 29° 28° (NNE) 23:56:57 437.485
ITUPSAT 1 03 Mar 23:50:49 23:54:44 26° 59° (ENE) 23:58:43 437.325
POPSAT HIP 1 03 Mar 23:51:52 23:56:09 84° 104° (ESE) 00:00:22 437.405
POLYITAN 1 03 Mar 23:52:03 23:56:19 85° 105° (ESE) 00:00:33 437.675
CUSAT 1 04 Mar 00:04:21 00:09:46 52° 100° (E) 00:13:52 437.405
CUBEBUG 1 04 Mar 00:11:46 00:14:54 18° 272° (W) 00:17:55 437.445
NANOSAT C BR1 04 Mar 00:14:37 00:18:49 61° 289° (WNW) 00:22:59 145.865
BEESAT 2 04 Mar 00:16:40 00:20:35 36° 33° (NNE) 00:24:27 435.950
YUBILEINY 04 Mar 00:17:12 00:21:26 14° 34° (NNE) 00:26:00 435.215
GONETS M04 04 Mar 00:18:41 00:26:26 34° 302° (WNW) 00:34:06
AIST 2 04 Mar 00:21:30 00:25:10 26° 24° (NNE) 00:28:50 435.215
TISAT 1 04 Mar 00:36:23 00:40:15 32° 265° (W) 00:44:07 437.305
SPROUT 04 Mar 00:37:28 00:41:19 30° 266° (W) 00:45:09 437.525
UNISAT 6 04 Mar 00:45:25 00:48:49 23° 299° (WNW) 00:52:10 437.425
QB50P1 04 Mar 00:48:09 00:51:56 31° 296° (WNW) 00:55:40 145.935-145.965
KKS-1 04 Mar 00:49:37 00:52:52 21° 58° (ENE) 00:56:14 437.445
SWISSCUBE 04 Mar 00:50:49 00:55:36 79° 72° (ENE) 01:00:27 437.505
BUGSAT 1 04 Mar 00:51:15 00:55:07 36° 294° (WNW) 00:58:55 437.445
QB50P2 04 Mar 00:52:34 00:56:15 29° 297° (WNW) 00:59:53 145.880/145.840
STARS 04 Mar 00:53:30 00:56:09 16° 55° (NE) 00:58:56 437.465
Oscar 19 04 Mar 00:55:27 00:58:52 18° 87° (E) 01:02:27 437.125/150
BEESAT 04 Mar 00:59:11 01:03:59 86° 73° (ENE) 01:08:48 436.000
SO-50 04 Mar 01:03:56 01:06:45 16° 113° (ESE) 01:09:46 436.795
DUCHIFAT 1 04 Mar 01:06:38 01:10:01 23° 299° (WNW) 01:13:19 145.980
TIGRISAT 04 Mar 01:10:28 01:13:01 15° 304° (NW) 01:15:30 435.000
